Location: Casaglia
(44.0333°N, 11.5167°E)
Time: 03:49:39
(UTC+00:00)

H-2A R/B - Pass Details

Date: 07 June 2020
Orbit: 577 x 655 km, 98.5° (Epoch: 07 July)

Event Time Altitude Azimuth Distance (km) Brightness Sun altitude
Rises 01:40:00 0° 139° (SE) 2,924 5.4 -15.2°
Reaches altitude 10° 01:42:21 10° 130° (SE) 2,031 4.7 -14.9°
Maximum altitude 01:46:16 32° 67° (ENE) 1,115 4.0 -14.5°
Drops below altitude 10° 01:50:17 10° 5° (N) 2,070 5.7 -14.1°
Sets 01:52:41 0° 356° (N) 2,991 6.4 -13.8°
